Find Dekart

NORAD ID: 46493 Int'l Des: 2020-068 Owner: MGU Country: RU operational
LEOCIRCULARRETROGRADE

Current View

Loading 3D Globe...

About Dekart

Description loading...

Upcoming Passes

Passes for default location (London). Set your location on the main map for personalized predictions.

Altitude History

Loading altitude history...

Two-Line Element Set

1 46493U 20068H 26150.23984584 .00016991 00000-0 47251-3 0 9997
2 46493 97.8738 158.2309 0008599 1.5016 358.6251 15.36891853313019
Epoch: May 30, 2026 • Age: 8 hours

Current Status

Altitude 458.9 km
Velocity 7.64 km/s
Sub-Earth Point -23.61°S, 71.95°E
Launch Date Sep 28, 2020
Age 5.6 years
Type other

Technical Details

Classification Payload
Mass 4.00 kg
Dry Mass 4.00 kg
Total Mass 4.00 kg
Length 0.30 m
Diameter 0.10 m
Span 0.30 m
Shape Box
Manufacturer MGU
Bus Type Cubesat 3U
Phase Status In Orbit
Owner/State MGU/RU

Most Searched